Probability
6 3 3 3 0 0 0 0 0 0 0 0 0 0 0 0 0 0 0 0 0 0 0 0 0 0 0 0 0 0 0 0 0 0 0 0 0 0 0 0 0 0 0
6 3 0 3 3 0 0 0 0 0 0 0 0 0 0 0 0 0 0 0 0 0 0 0 0 0 0 0 0 0 0 0 0 0 0 0 0 0 0 0 0 0 0
6 3 0 3 3 0 0 0 0 0 0 0 0 0 0 0 0 0 0 0 0 0 0 0 0 0 0 0 0 0 0 0 0 0 0 0 0 0 0 0 0 0 0
6 6 3 3 0 0 0 0 0 0 0 0 0 0 0 0 0 0 0 0 0 0 0 0 0 0 0 0 0 0 0 0 0 0 0 0 0 0 0 0 0 0 0
6 6 3 3 0 0 0 0 0 0 0 0 0 0 0 0 0 0 0 0 0 0 0 0 0 0 0 0 0 0 0 0 0 0 0 0 0 0 0 0 0 0 0
6 6 6 3 3 0 0 0 0 0 0 0 0 0 0 0 0 0 0 0 0 0 0 0 0 0 0 0 0 0 0 0 0 0 0 0 0 0 0 0 0 0 0
6 3 6 3 0 3 0 0 0 0 0 0 0 0 0 0 0 0 0 0 0 0 0 0 0 0 0 0 0 0 0 0 0 0 0 0 0 0 0 0 0 0 0
6 10 6 6 3 3 0 0 0 3 0 0 0 0 0 0 0 0 0 0 0 0 0 0 0 0 0 0 0 0 0 0 0 0 0 0 0 0 0 0 0 0 0
6 6 3 0 0 0 0 0 0 0 0 0 0 0 0 0 0 0 0 0 0 0 0 0 0 0 0 0 0 0 0 0 0 0 0 0 0 0 0 0 0 0 0
6 6 3 3 0 0 0 0 0 0 0 0 0 0 0 0 0 0 0 0 0 0 0 0 0 0 0 0 0 0 0 0 0 0 0 0 0 0 0 0 0 0 0
6 6 6 6 3 0 0 0 0 0 0 0 0 0 0 0 0 0 0 0 0 0 0 0 0 0 0 0 0 0 0 0 0 0 0 0 0 0 0 0 0 0 0
10 10 10 10 6 3 6 6 0 0 3 0 0 0 0 0 0 0 0 0 0 0 0 0 0 0 0 0 0 0 0 0 0 0 0 0 0 0 0 0 0 0 0
3 6 10 10 3 6 6 6 6 3 3 0 0 0 0 0 0 0 0 0 0 0 0 0 0 0 0 0 0 0 0 0 0 0 0 0 0 0 0 0 0 0 0
3 10 10 6 3 6 6 3 0 3 0 0 0 0 0 0 0 0 0 0 0 0 0 0 0 0 0 0 0 0 0 0 0 0 0 0 0 0 0 0 0 0 0
10 6 10 6 3 0 3 0 0 0 0 0 0 0 0 0 0 0 0 0 0 0 0 0 0 0 0 0 0 0 0 0 0 0 0 0 0 0 0 0 0 0 0
6 10 6 6 3 3 0 0 0 0 0 0 0 0 0 0 0 0 0 0 0 0 0 0 0 0 0 0 0 0 0 0 0 0 0 0 0 0 0 0 0 0 0
3 6 3 6 3 3 3 0 0 0 0 0 0 0 0 0 0 0 0 0 0 0 0 0 0 0 0 0 0 0 0 0 0 0 0 0 0 0 0 0 0 0 0
3 3 3 3 3 3 3 3 3 0 0 0 0 0 0 0 0 0 0 0 0 0 0 0 0 0 0 0 0 0 0 0 0 0 0 0 0 0 0 0 0 0 0
3 3 3 3 10 6 3 3 3 0 0 0 0 0 0 0 0 0 0 0 0 0 0 0 0 0 0 0 0 0 0 0 0 0 0 0 0 0 0 0 0 0 0
0 3 3 3 6 6 6 6 6 6 6 0 0 0 0 0 0 0 0 0 0 0 0 0 0 0 0 0 0 0 0 0 0 0 0 0 0 0 0 0 0 0 0
3 0 3 3 3 3 6 6 6 6 6 3 0 0 0 0 0 0 0 0 0 0 0 0 0 0 0 0 0 0 0 0 0 0 0 0 0 0 0 0 0 0 0
3 0 0 0 3 3 3 3 6 6 3 0 0 0 0 0 0 0 0 0 0 0 0 0 0 0 0 0 0 0 0 0 0 0 0 0 0 0 0 0 0 0 0
0 0 0 0 0 0 0 0 0 3 0 0 0 0 0 0 0 0 0 0 0 0 0 0 0 0 0 0 0 0 0 0 0 0 0 0 0 0 0 0 0 0 0
0 0 0 0 0 0 0 0 3 0 0 0 0 0 0 0 0 0 0 0 0 0 0 0 0 0 0 0 0 0 0 0 0 0 0 0 0 0 0 0 0 0 0
0 0 0 0 0 0 0 0 0 0 0 0 0 0 0 0 0 0 0 0 0 0 0 0 0 0 0 0 0 0 0 0 0 0 0 0 0 0 0 0 0 0 0
0 0 0 0 0 0 0 0 0 0 0 0 0 0 0 0 0 0 0 0 0 0 0 0 0 0 0 0 0 0 0 0 0 0 0 0 0 0 0 0 0 0 0
Height
5824 5824 5824 5825 5825 5826 5827 5828 5828 5829 5831 5832 5833 5834 5835 5836 5837 5838 5839 5840 5841 5842 5842 5843 5843 5843 5843 5844 5843 5843 5843 5843 5842 5842 5841 5840 5839 5838 5837 5835 5834 5832 5830
5821 5822 5822 5823 5823 5824 5825 5826 5827 5828 5829 5830 5831 5832 5834 5835 5836 5837 5838 5839 5840 5840 5841 5841 5842 5842 5842 5842 5842 5842 5841 5841 5840 5840 5839 5838 5837 5836 5835 5834 5832 5831 5829
5819 5819 5820 5821 5821 5822 5823 5824 5825 5826 5827 5828 5830 5831 5832 5833 5834 5835 5836 5837 5838 5839 5839 5840 5840 5840 5841 5840 5840 5840 5840 5839 5839 5838 5837 5836 5835 5834 5833 5832 5830 5828 5827
5816 5817 5818 5818 5819 5820 5820 5821 5822 5824 5825 5826 5827 5829 5830 5831 5832 5833 5834 5835 5836 5837 5838 5838 5838 5839 5839 5839 5839 5839 5838 5837 5837 5836 5835 5834 5833 5832 5831 5829 5828 5826 5824
5814 5815 5815 5816 5817 5817 5818 5819 5820 5822 5823 5824 5825 5827 5828 5829 5830 5831 5832 5833 5834 5835 5836 5836 5837 5837 5837 5837 5837 5836 5836 5835 5835 5834 5833 5832 5831 5829 5828 5826 5825 5823 5822
5811 5812 5813 5814 5814 5815 5816 5817 5818 5819 5821 5822 5823 5824 5826 5827 5828 5829 5830 5831 5832 5833 5834 5834 5834 5835 5835 5835 5834 5834 5834 5833 5832 5831 5830 5829 5828 5827 5825 5824 5822 5821 5819
5809 5809 5810 5811 5812 5813 5814 5815 5816 5817 5818 5819 5821 5822 5823 5824 5825 5826 5827 5829 5830 5831 5831 5832 5832 5832 5832 5832 5832 5832 5831 5830 5830 5829 5828 5826 5825 5824 5822 5820 5819 5817 5815
5806 5807 5808 5809 5809 5810 5811 5812 5814 5815 5816 5817 5818 5820 5821 5822 5823 5824 5825 5826 5827 5828 5828 5829 5829 5829 5829 5829 5829 5829 5828 5827 5826 5825 5824 5823 5821 5820 5818 5817 5815 5813 5811
5802 5804 5805 5806 5807 5808 5809 5810 5811 5812 5813 5814 5815 5817 5818 5819 5820 5821 5822 5823 5824 5825 5825 5825 5826 5826 5826 5826 5825 5825 5824 5823 5822 5821 5820 5819 5817 5816 5814 5813 5811 5809 5807
5799 5800 5801 5803 5804 5805 5806 5807 5808 5809 5810 5811 5812 5814 5815 5816 5817 5818 5819 5820 5821 5821 5822 5822 5822 5822 5822 5822 5821 5821 5820 5819 5819 5818 5816 5815 5813 5812 5810 5808 5806 5804 5802
5795 5797 5798 5799 5800 5801 5803 5804 5805 5806 5807 5808 5809 5810 5811 5812 5813 5814 5815 5816 5817 5817 5818 5818 5818 5818 5818 5818 5817 5817 5816 5815 5814 5813 5812 5810 5809 5807 5806 5804 5802 5799 5797
5791 5792 5794 5795 5796 5798 5799 5800 5801 5802 5804 5805 5806 5806 5807 5808 5809 5810 5811 5812 5813 5813 5814 5814 5814 5813 5813 5813 5812 5812 5811 5810 5810 5808 5807 5806 5804 5803 5801 5798 5796 5794 5791
5786 5788 5790 5791 5792 5794 5795 5796 5798 5799 5800 5801 5802 5803 5804 5805 5805 5806 5807 5807 5808 5809 5809 5809 5809 5809 5808 5808 5808 5807 5806 5805 5804 5803 5802 5801 5799 5797 5795 5792 5790 5787 5785
5782 5783 5785 5786 5788 5789 5791 5792 5793 5795 5795 5796 5797 5799 5799 5800 5801 5802 5802 5803 5803 5804 5804 5804 5804 5804 5803 5803 5803 5802 5801 5800 5799 5798 5796 5795 5793 5791 5789 5786 5784 5781 5778
5777 5778 5780 5781 5783 5785 5786 5788 5789 5790 5791 5792 5793 5794 5795 5795 5796 5796 5797 5797 5798 5798 5798 5799 5799 5798 5798 5798 5797 5796 5795 5794 5793 5792 5790 5789 5787 5785 5783 5780 5778 5775 5772
5771 5773 5775 5776 5778 5780 5781 5783 5784 5785 5786 5787 5788 5789 5789 5790 5790 5791 5791 5792 5792 5792 5793 5793 5793 5793 5792 5792 5791 5790 5790 5788 5787 5786 5784 5782 5781 5779 5776 5774 5771 5768 5765
5765 5767 5769 5771 5772 5774 5775 5777 5778 5779 5780 5781 5782 5783 5784 5784 5785 5785 5785 5786 5786 5787 5787 5787 5787 5786 5786 5785 5785 5784 5783 5782 5781 5779 5777 5775 5774 5772 5769 5767 5764 5761 5758
5759 5761 5763 5765 5767 5769 5770 5771 5773 5774 5775 5775 5776 5777 5778 5778 5778 5779 5779 5780 5780 5781 5781 5781 5780 5780 5779 5779 5778 5777 5776 5775 5774 5772 5770 5768 5766 5764 5762 5759 5756 5753 5750
5753 5755 5757 5759 5761 5763 5764 5766 5767 5768 5769 5770 5770 5771 5772 5772 5772 5773 5773 5774 5774 5774 5774 5774 5773 5773 5772 5772 5771 5770 5769 5767 5766 5764 5763 5761 5759 5756 5754 5751 5748 5745 5741
5746 5749 5751 5753 5755 5757 5758 5759 5761 5762 5763 5763 5764 5765 5765 5766 5766 5766 5766 5767 5767 5767 5767 5766 5766 5765 5764 5764 5763 5762 5761 5759 5758 5756 5755 5753 5750 5748 5745 5742 5739 5736 5733
5739 5742 5744 5747 5749 5750 5752 5753 5754 5755 5756 5757 5757 5758 5758 5759 5759 5759 5759 5760 5760 5759 5759 5758 5758 5757 5757 5756 5755 5754 5752 5751 5750 5748 5746 5744 5742 5739 5736 5733 5730 5727 5723
5732 5735 5738 5740 5742 5743 5745 5746 5747 5748 5749 5749 5750 5750 5751 5751 5751 5752 5752 5752 5752 5751 5751 5751 5750 5749 5748 5748 5746 5745 5744 5742 5740 5739 5737 5735 5733 5730 5727 5724 5721 5717 5713
5725 5728 5730 5732 5734 5736 5737 5739 5740 5741 5742 5742 5743 5743 5743 5743 5743 5744 5744 5743 5743 5743 5742 5742 5741 5741 5740 5739 5737 5736 5735 5733 5731 5729 5727 5725 5723 5720 5717 5714 5711 5707 5703
5717 5720 5722 5724 5726 5728 5730 5731 5732 5733 5734 5734 5734 5735 5735 5735 5735 5735 5735 5735 5735 5734 5734 5733 5732 5731 5730 5729 5728 5726 5725 5723 5721 5720 5717 5715 5713 5710 5707 5704 5701 5697 5693
5709 5711 5714 5716 5718 5720 5721 5722 5723 5724 5725 5726 5726 5726 5727 5727 5727 5726 5726 5726 5726 5725 5725 5724 5723 5722 5720 5719 5718 5716 5715 5713 5711 5709 5707 5705 5702 5700 5696 5693 5690 5687 5683
5700 5702 5705 5707 5709 5711 5712 5713 5714 5715 5716 5717 5717 5718 5718 5718 5718 5717 5717 5716 5716 5715 5715 5714 5713 5712 5710 5709 5708 5706 5704 5703 5701 5699 5696 5694 5692 5689 5685 5682 5679 5676 5672
Wind_Speed
10 10 10 10 9 8 8 7 7 7 8 8 7 7 7 7 7 7 7 7 6 6 6 6 5 5 5 5 6 7 7 7 8 9 9 9 10 10 10 11 11 11 12
10 10 10 10 9 9 9 8 8 7 8 8 8 8 8 8 8 7 7 7 7 7 7 6 6 6 6 6 6 6 7 7 8 8 9 9 10 10 11 11 12 12 13
10 10 9 9 9 9 9 9 9 9 8 8 9 9 9 9 9 9 8 7 7 7 7 7 7 7 7 6 6 6 7 7 8 8 9 10 11 11 11 12 12 13 14
10 10 10 10 10 9 9 9 9 9 9 9 10 9 10 10 10 9 9 8 8 7 7 7 7 7 7 7 7 7 8 8 9 9 10 11 11 12 13 13 13 14 14
9 9 10 9 9 9 9 8 9 9 9 9 9 10 10 10 10 10 9 9 8 8 8 8 8 8 8 8 8 8 9 9 9 10 11 12 12 12 13 13 14 15 15
9 9 10 10 10 9 9 9 9 10 10 10 9 9 10 10 10 10 10 9 9 9 9 9 9 9 9 9 9 9 10 10 11 11 12 12 13 13 14 14 14 15 16
10 10 10 10 10 10 10 10 10 10 10 10 11 11 10 10 10 10 10 11 11 10 10 10 11 11 11 11 11 11 11 12 12 13 13 14 14 15 15 15 15 16 17
12 11 11 11 11 11 11 11 11 11 11 11 10 11 11 11 11 11 11 11 11 12 13 12 12 12 12 12 13 13 13 13 14 14 14 14 15 15 15 16 16 17 18
12 12 12 12 12 12 12 12 12 12 12 12 11 11 11 11 11 11 11 12 12 13 13 13 13 14 14 14 14 15 15 15 15 15 15 16 16 17 17 17 17 18 18
14 13 13 13 13 12 12 13 13 13 13 13 13 12 13 13 13 13 12 13 13 13 13 13 13 14 14 15 15 15 15 15 16 16 17 17 17 17 18 19 19 19 20
15 14 14 14 14 14 13 13 13 14 14 15 15 14 14 14 14 14 14 14 14 14 14 15 15 15 15 16 16 16 16 16 17 17 17 18 18 19 19 20 21 21 22
16 15 15 15 15 15 15 14 14 14 15 15 15 15 14 15 15 16 16 16 16 16 16 16 16 17 17 17 16 16 17 17 18 18 18 19 20 20 21 22 23 24 24
16 16 16 16 16 16 16 15 15 15 15 15 15 15 16 16 16 16 16 16 16 16 17 17 17 17 17 17 16 17 18 18 19 19 19 20 21 22 22 23 24 25 26
18 18 17 17 17 17 16 16 16 17 17 16 16 16 16 17 17 17 17 17 17 17 18 17 17 18 18 18 18 18 19 19 20 20 21 22 22 23 23 24 25 25 26
19 19 18 17 17 17 17 17 17 17 17 17 18 18 18 18 18 18 19 18 18 19 19 19 19 19 19 19 19 20 20 20 21 21 22 23 23 23 24 25 26 26 26
20 20 19 19 18 18 18 18 18 18 18 18 19 19 19 19 19 20 20 21 21 21 21 20 21 21 20 21 21 21 21 22 23 23 24 24 24 24 25 26 27 28 28
21 20 20 19 19 18 18 18 18 18 19 19 19 20 20 20 20 20 21 21 21 22 21 21 21 21 21 21 22 22 23 23 24 24 24 24 25 25 26 28 28 29 29
22 21 20 20 20 19 19 19 19 19 19 20 20 20 20 20 20 20 20 21 21 21 21 21 21 21 22 23 23 24 24 24 24 25 26 26 26 27 28 29 30 30 31
22 22 21 21 20 20 20 20 20 21 21 20 20 21 21 21 20 21 21 21 21 22 22 22 23 23 23 23 24 24 25 25 26 26 27 27 27 28 29 30 31 32 32
22 22 22 21 21 21 20 20 20 21 22 22 21 21 21 22 22 22 22 22 23 23 23 23 23 23 24 24 25 25 26 26 27 27 28 28 28 29 30 31 31 32 33
24 24 23 22 22 22 21 21 21 21 21 21 22 22 23 22 23 23 23 23 23 24 24 25 25 25 26 26 26 27 27 27 28 28 28 28 29 30 30 31 32 33 34
25 24 24 24 23 22 22 22 22 22 22 22 22 23 23 23 24 24 24 25 25 26 26 26 26 26 27 27 27 28 28 28 29 29 30 31 32 32 33 33 34 35 36
26 26 26 25 25 24 24 24 24 24 23 23 24 24 24 24 25 25 25 25 26 26 27 27 27 27 28 28 29 29 30 30 30 31 31 32 33 33 33 34 35 36 36
28 28 28 27 26 26 26 26 26 26 25 25 25 26 26 26 26 26 26 27 27 27 27 28 28 29 30 30 30 30 31 31 31 31 32 32 33 33 33 34 35 35 36
30 29 29 29 28 28 28 28 27 27 27 27 27 27 27 28 28 28 28 28 28 28 29 29 30 30 31 31 31 31 31 31 32 32 33 33 34 34 35 35 35 36 37
30 30 30 30 30 30 29 29 29 29 29 28 28 28 28 28 28 28 28 29 29 29 30 30 30 31 31 31 31 32 32 32 32 33 33 34 35 36 36 36 36 36 37
Wind_Direction
276 269 266 266 265 259 256 250 244 240 240 241 243 237 237 237 240 237 237 237 243 249 252 258 256 265 274 285 291 294 300 305 307 311 315 318 320 323 327 328 328 328 327
275 270 265 265 266 260 252 253 245 238 239 241 242 242 239 238 238 239 241 242 248 249 252 255 258 267 274 280 286 294 303 308 310 315 318 320 321 323 324 325 328 328 328
271 267 263 261 262 260 251 252 247 239 239 239 241 244 242 241 241 240 240 245 251 252 254 255 261 268 273 275 281 291 301 307 309 313 316 316 317 319 321 321 323 326 327
268 264 259 257 258 260 255 249 244 242 242 244 243 243 242 242 243 243 241 243 248 253 252 255 261 268 272 276 281 290 297 301 305 309 312 313 314 315 316 319 322 324 325
265 259 257 258 257 255 253 247 240 241 242 242 243 242 243 245 245 244 240 239 245 247 253 261 266 271 272 276 281 289 295 299 303 307 310 311 313 315 316 318 319 321 322
261 256 257 254 253 254 250 246 239 237 242 243 245 246 245 243 243 244 243 243 245 249 258 264 266 270 272 274 281 289 294 298 303 306 309 309 309 312 316 318 319 319 318
258 259 257 253 251 251 251 248 242 240 243 244 247 247 246 243 244 244 249 250 251 255 261 266 267 270 272 274 280 286 292 295 298 302 305 309 310 311 313 314 315 316 317
258 254 253 253 252 248 247 247 246 245 245 244 245 243 244 245 246 247 251 253 256 259 263 265 268 270 273 277 281 286 290 293 295 298 302 306 310 311 310 311 313 314 314
255 251 252 252 251 249 249 248 247 247 245 245 247 246 246 247 248 250 253 255 258 263 264 265 268 270 275 280 283 286 288 291 293 297 301 303 305 307 308 309 311 313 312
252 252 251 250 249 251 251 250 249 249 248 249 248 249 249 249 250 252 255 259 261 263 266 270 273 274 276 280 284 286 287 289 291 295 299 303 305 306 306 308 310 311 311
251 251 252 250 250 251 253 252 251 250 251 253 254 254 253 251 253 255 257 260 263 266 270 273 275 275 278 281 284 285 287 289 292 295 299 301 303 303 304 305 306 307 309
250 250 250 251 252 252 253 252 252 252 253 253 255 258 257 255 256 257 257 260 265 267 271 273 276 277 279 280 283 286 289 290 292 295 297 299 301 302 302 303 304 305 307
248 249 249 251 252 253 253 253 253 253 256 255 256 258 259 256 255 257 261 264 266 268 271 272 275 277 279 281 284 287 290 291 292 294 296 298 298 300 302 304 306 306 306
248 249 250 252 251 250 252 254 255 256 256 258 259 259 259 258 257 259 263 266 267 269 272 273 275 278 278 280 284 287 290 292 292 292 295 298 298 299 301 303 305 307 308
248 249 251 252 251 250 253 257 257 259 258 259 261 262 262 260 259 260 263 263 265 268 271 272 274 278 278 279 281 285 289 292 293 293 295 297 297 299 302 305 306 307 309
247 248 250 251 252 252 254 257 259 259 259 260 263 264 264 264 262 262 263 263 264 267 270 272 274 276 277 279 281 283 285 288 290 292 295 296 297 299 302 303 304 305 306
245 246 247 249 251 254 255 256 259 261 261 262 263 265 265 265 266 266 265 264 265 269 270 272 274 275 275 276 279 282 284 286 289 292 293 294 296 298 301 303 304 305 306
244 244 246 248 251 253 254 256 259 260 261 263 263 265 266 267 268 267 268 268 269 270 272 273 275 276 276 278 280 283 285 287 289 292 293 293 294 297 299 301 302 303 305
244 244 245 248 250 253 255 257 259 261 263 264 264 265 266 269 270 270 270 270 271 272 273 274 276 276 277 278 280 283 286 288 288 289 291 293 295 296 298 300 301 303 304
243 244 245 248 251 255 257 258 259 262 264 265 265 266 267 268 269 271 272 272 272 273 274 274 275 276 276 277 279 283 285 287 288 288 290 292 294 296 298 300 301 303 304
244 245 247 249 252 256 258 258 260 262 264 266 266 267 268 269 269 271 271 272 272 272 273 274 275 276 278 279 282 285 287 288 288 288 288 291 293 294 296 299 301 302 304
244 246 248 250 253 257 258 259 260 263 264 267 268 270 270 269 269 271 271 273 273 274 276 277 277 279 280 281 282 284 287 288 288 289 289 291 293 295 296 298 300 302 303
244 246 248 251 254 257 260 261 262 264 266 268 270 271 271 270 271 273 273 273 275 276 277 278 279 280 280 281 283 284 286 287 288 289 290 292 294 295 297 299 300 301 302
246 248 250 253 256 258 260 261 263 264 266 267 269 271 272 273 274 276 276 276 276 277 279 280 281 280 281 283 284 285 286 287 287 289 291 292 293 295 297 299 301 302 303
247 249 251 253 256 259 260 261 262 265 267 268 270 272 274 275 275 275 276 276 276 277 279 281 283 284 283 282 284 285 286 287 288 290 291 292 294 295 296 297 298 300 301
248 250 251 253 255 258 260 261 263 265 267 267 268 270 274 276 276 276 277 277 277 277 278 280 282 283 283 284 285 286 287 287 288 290 291 293 294 296 297 297 297 299 300